Voltar ao catálogo

STARLINK-34551

AtivoComunicaçõesVLEO
NORAD 64682·PAYLOAD·🇺🇸 United States

Lançado Jun 28, 2025 de Cape Canaveral Space Force Station

Loading…

Próximas Passagens (próximas 24 horas)

TLE

AtualizadoSource: CelesTrak SupGP

Época: Sep 14, 2026, 21:25 UTC

1 64682C 25139U   26257.89284722 -.00001482  00000+0 -43795-4 0  2575
2 64682  53.1588 315.9691 0001222  78.8981 309.9650 15.34384265    14

Acompanhe STARLINK-34551 em tempo real com AllMySat

Download on the App Store